Regional Weather Roundup
Issued by NWS Newport/Morehead, NC

Current Version | Previous Version | Graphics & Text | Print | Product List | Glossary Off
Versions: 1 2 3 4 5 6 7 8 9 10 11 12 13 14 15 16 17 18 19 20 21 22 23 24 25 26 27 28 29 30 31 32 33 34 35 36 37 38 39 40 41 42 43 44 45 46 47 48 49 50

000
ASUS42 KMHX 200225
RWRMHX
WEATHER ROUNDUP FOR EASTERN NORTH CAROLINA
NATIONAL WEATHER SERVICE NEWPORT/MOREHEAD CITY NC
1000 PM EDT WED JUL 19 2017

NOTE: "FAIR" INDICATES FEW OR NO CLOUDS BELOW 12,000 FEET
WITH NO SIGNIFICANT WEATHER AND/OR OBSTRUCTIONS TO VISIBILITY

NCZ015>017-031-032-045>047-102-103-200300-
NORTH COAST

CITY           SKY/WX    TMP DP  RH WIND       PRES   REMARKS
EDENTON        CLEAR     81  73  76 CALM      30.09R
ELIZABETH CITY CLEAR     79  76  90 S7        30.08R
KITTY HAWK     CLEAR     79  72  78 CALM      30.07S
MANTEO         CLEAR     79  73  80 SW9       30.09S

$$

NCZ045>047-081-094-103-104-200300-
CENTRAL COAST

CITY           SKY/WX    TMP DP  RH WIND       PRES   REMARKS
FRISCO         PTCLDY    81  75  82 SW7       30.08S

$$

NCZ095-097-098-100-101-200300-
SOUTHERN COAST

CITY           SKY/WX    TMP DP  RH WIND       PRES   REMARKS
BEAUFORT       CLEAR     79  76  90 S5        30.08S
CEDAR ISLAND   NOT AVBL
JACKSONVILLE   CLEAR     75  75 100 CALM      30.08R
PINEY ISLAND   CLEAR    N/A N/A N/A CALM      30.08S
WILMINGTON     CLEAR     74  73  97 SE3       30.08R


$$

NCZ011>013-027>030-043-044-078>080-089-090>093-098-200300-
COASTAL PLAIN

CITY           SKY/WX    TMP DP  RH WIND       PRES   REMARKS
AHOSKIE          N/A     75  73  93 S3        30.08R
CLINTON        PTCLDY    75  72  91 CALM      30.09R
ELIZABETHTOWN  NOT AVBL
GOLDSBORO      CLEAR     78  77  98 CALM      30.07R
GREENVILLE     CLEAR     77  72  83 S7        30.10R
HAVELOCK       CLEAR     75  73  93 CALM      30.09
KENANSVILLE    CLEAR     73  70  88 CALM      30.09S
KINSTON        CLEAR     77  72  83 S3        30.09S
NEW BERN       CLEAR     74  72  93 CALM      30.09S
RICHLANDS      PTCLDY    74  74 100 CALM      30.09S
ROCKY MOUNT    CLEAR     79  73  82 SE6       30.08R
WASHINGTON     CLEAR     76  71  83 CALM      30.09S
WHITEVILLE     CLEAR     77  72  83 CALM      30.08S

$$

AMZ130-135-150-152-154-156-158-170-250-252-270-ANZ085-086-088-633-658-670-200300-
MARINE OBSERVATIONS

STATION/POSITION TIME  TEMP    WIND        PRES    WAVE   SWELL
                       AIR SEA DIR/SP/G            HT/PER HT/PER
                 (UTC) (F)     (DEG/KT/KT) (MB)    (FT/S) (FT/S)
CHESAPEAKE LIGHT NOT AVBL
64 E VA BEACH    0150   80 81  220/ 12/ 14 1018.9    3/ 6   2/ 6
DUCK             0200   81 62  210/ 11/ 13 1018.2
2 E DUCK         0200      69                N/A     2/14   2/14
OREGON INLET     0200   80 76  210/  9/ 11 1018.7
13E OREGON INLT  0148      78                N/A     3/ 7   3/ 7
HATTERAS CG      0200   80 80  200/  4/  8 1018.7
DIAMOND BUOY     0150   82 85  200/ 12/ 14 1018.7    2/ 7   2/ 7
CAPE LOOKOUT     0200   80     160/  5/  6 1018.3
BEAUFORT LAB     0200   80 80  170/  5/  7 1018.0
30 SE NEW RVR IN 0208   80 83  230/  6/  8 1018.8
30 SE NEW RVR IN 0213      83                N/A     2/ 8   2/15
27 SE WRIGHTSVLE 0208   80 82  240/  6/  8 1018.6
5 SE WRIGHTSVLE  0208   80 81  270/  4/ 10 1018.6
225 S CAPE HAT   0150   81 83  200/ 16/ 19 1019.0    3/ 8   2/ 8
41 SE CHARLESTON 0210   78 83  210/  8/ 10 1019.0

$$



USA.gov is the U.S. government's official web portal to all federal, state and local government web resources and services.